Overview Statistics Trail Chart Weather Telemetry Raw packets
 

This is the latest recevied weather packets stored in our database for station/object EA3CH. If no packets are shown the sender has not sent any weather packets the latest 10 day(s).

<< 45 46 47 48 49 50 >>
Time Temp. Humidity Pressure Rain* Wind** Luminosity Snow
1787756404 28.89° C 51% 1014.8 hPa 0 mm - 0 W/m² -
1787755504 29.44° C 42% 1014.8 hPa 0 mm - 0 W/m² -
1787754606 30° C 39% 1014.7 hPa 0 mm - 0 W/m² -
1787753706 28.89° C 42% 1014.9 hPa 0 mm - 0 W/m² -
1787753704 28.89° C 51% 1015 hPa 0 mm - 0 W/m² -
1787752806 28.33° C 44% 1014.3 hPa 0 mm - 0 W/m² -
1787751907 27.78° C 46% 1014.3 hPa 0 mm - 0 W/m² -
1787751903 27.22° C 55% 1014.5 hPa 0 mm - 0 W/m² -
1787751006 27.22° C 52% 1014.5 hPa 0 mm - 0 W/m² -
1787751004 26.67° C 62% 1014.7 hPa 0 mm - 0 W/m² -
1787750107 26.11° C 60% 1014.6 hPa 0 mm - 0 W/m² -
1787750104 25.56° C 69% 1014.8 hPa 0 mm - 0 W/m² -
1787749207 25.56° C 61% 1014.9 hPa 0 mm - 0 W/m² -
1787749205 25.56° C 70% 1015 hPa 0 mm - 0 W/m² -
1787748303 25.56° C 71% 1015.5 hPa 0 mm - 0 W/m² -
1787747406 25.56° C 65% 1015.9 hPa 0 mm - 0 W/m² -
1787747404 25.56° C 73% 1016 hPa 0 mm - 0 W/m² -
1787746504 26.11° C 69% 1016.3 hPa 0 mm - 0 W/m² -
1787745607 25° C 75% 1016.4 hPa 0 mm - 0 W/m² -
1787744704 24.44° C 77% 1017 hPa 0 mm - 0 W/m² -
1787743807 24.44° C 68% 1016.6 hPa 0 mm - 0 W/m² -
1787743804 24.44° C 77% 1016.7 hPa 0 mm - 0 W/m² -
1787742905 24.44° C 69% 1016.1 hPa 0 mm - 0 W/m² -
1787742904 24.44° C 77% 1016.2 hPa 0 mm - 0 W/m² -
1787742005 24.44° C 77% 1016.5 hPa 0 mm - 0 W/m² -

* Rain latest hour (hover to see other rain measurements)
** Current wind speed in m/s (hover to see current wind gust speed)